Overview Statistics Trail Chart Weather Telemetry Raw packets
 

This is the latest recevied weather packets stored in our database for station/object EA3DJ-10. If no packets are shown the sender has not sent any weather packets the latest 10 day(s).

<< 21 22 23 24 25 26 27 >>
Time Temp. Humidity Pressure Rain* Wind** Luminosity Snow
1787968746 32.22° C 27% 1019.6 hPa - - - -
1787967545 31.67° C 29% 1019.7 hPa - - - -
1787966345 32.22° C 24% 1019.9 hPa - - - -
1787965145 31.11° C 27% 1020.2 hPa - - - -
1787963987 35° C 26% 1020.2 hPa - - - -
1787963945 35° C 26% 1020.2 hPa - - - -
1787962745 32.78° C 28% 1020.3 hPa - - - -
1787961545 32.78° C 27% 1020.4 hPa - - - -
1787960345 32.78° C 28% 1020.6 hPa - - - -
1787959145 33.89° C 27% 1020.4 hPa - - - -
1787957945 32.78° C 27% 1020.1 hPa - - - -
1787956744 30.56° C 28% 1020 hPa - - - -
1787955544 28.33° C 32% 1020 hPa - - - -
1787954344 27.78° C 30% 1019.7 hPa - - - -
1787953144 27.78° C 29% 1019.6 hPa - - - -
1787951944 27.78° C 27% 1019.2 hPa - - - -
1787950744 27.78° C 27% 1018.8 hPa - - - -
1787949544 27.78° C 27% 1018.6 hPa - - - -
1787948344 27.78° C 28% 1018.5 hPa - - - -
1787947144 27.78° C 28% 1018.2 hPa - - - -
1787945943 27.78° C 29% 1017.9 hPa - - - -
1787944743 27.78° C 31% 1017.7 hPa - - - -
1787943542 27.78° C 31% 1017.5 hPa - - - -
1787942341 27.78° C 31% 1017 hPa - - - -
1787941141 27.78° C 32% 1017 hPa - - - -

* Rain since midnight (hover to see other rain measurements)
** Current wind speed in m/s (hover to see current wind gust speed)